Date String (YYYY-MM-DD hh:mm:ss) UTC,Instrument flags,Ambient pressure (hPa),Sample flow (lpm),Bypass flow (lpm),Sample temperature (°C),Ambient temperature (°C),ASC tube jacket temperature (°C),LED temperature (°C),Box temperature (°C),Sample RH (%),Span deviation,Mass concentration (μg/m³),Mass concentration (μg/m³),Mass concentration (μg/m³)
DateTimeUTC,F1_M11,P_M11,Q1_M11,Q2_M11,T1_M11,T2_M11,T3_M11,T4_M11,T5_M11,U1_M11,ZSPAN_M11,X0_M11,X2_M11,X1_M11
2022-11-27 20:00:00,,0818.4,5.00,0.00,25.0,23.9,00.0,33.8,27.0,16.2,0001.6,0012.76,0008.15,0007.58
2022-11-27 20:01:00,,0818.4,5.00,0.00,25.0,23.9,00.0,33.8,26.9,16.4,0000.0,0012.82,0008.18,0007.59
2022-11-27 20:02:00,,0818.4,5.00,0.00,25.0,23.9,00.0,33.8,26.9,16.4,0000.0,0012.52,0008.12,0007.57
2022-11-27 20:03:00,,0818.4,5.00,0.00,25.0,23.9,00.0,33.9,26.9,16.5,0000.0,0011.71,0008.12,0007.58
2022-11-27 20:04:00,,0818.4,5.00,0.00,25.0,23.9,00.0,33.9,27.0,16.4,0000.0,0011.66,0008.14,0007.60
2022-11-27 20:05:00,,0818.4,5.00,0.00,25.0,23.9,00.0,33.9,27.0,16.0,0001.3,0011.85,0008.16,0007.59
2022-11-27 20:06:00,,0818.3,5.00,0.00,25.0,23.9,00.0,33.9,27.0,16.0,0000.5,0011.97,0008.21,0007.61
2022-11-27 20:07:00,,0818.3,4.99,0.00,25.1,23.9,00.0,33.9,27.0,15.7,0000.4,0011.95,0008.19,0007.59
2022-11-27 20:08:00,,0818.4,5.00,0.00,25.1,23.9,00.0,33.9,27.0,15.7,0000.2,0012.61,0008.12,0007.54
2022-11-27 20:09:00,,0818.4,5.01,0.00,25.1,24.0,00.0,33.9,27.0,15.8,0000.0,0012.70,0008.11,0007.51
2022-11-27 20:10:00,,0818.3,5.00,0.00,25.1,24.0,00.0,33.9,27.0,15.7,0001.1,0013.20,0008.06,0007.46
2022-11-27 20:11:00,,0818.3,4.99,0.00,25.1,24.0,00.0,33.9,27.0,14.9,0000.7,0013.68,0007.89,0007.34
2022-11-27 20:12:00,,0818.3,4.99,0.00,25.1,24.0,00.0,33.9,27.0,14.3,0000.6,0013.38,0007.67,0007.15
2022-11-27 20:13:00,,0818.2,5.00,0.00,25.1,24.0,00.0,33.9,27.0,14.2,0000.4,0013.17,0007.50,0007.00
2022-11-27 20:14:00,,0818.1,5.01,0.00,25.1,24.0,00.0,34.0,27.1,14.4,0000.2,0013.37,0007.36,0006.86
2022-11-27 20:15:00,,0818.2,5.01,0.00,25.1,24.0,00.0,34.0,27.0,15.4,-000.3,0013.39,0007.27,0006.77
2022-11-27 20:16:00,,0818.2,4.99,0.00,25.1,24.1,00.0,34.0,27.1,15.5,-000.3,0013.38,0007.24,0006.72
2022-11-27 20:17:00,,0818.2,4.99,0.00,25.2,24.1,00.0,34.0,27.1,15.7,0000.0,0013.41,0007.20,0006.69
2022-11-27 20:18:00,,0818.1,5.00,0.00,25.2,24.1,00.0,34.0,27.1,15.7,0000.0,0013.37,0007.17,0006.68
2022-11-27 20:19:00,,0818.1,5.01,0.00,25.2,24.1,00.0,34.0,27.1,14.5,0000.0,0012.96,0007.10,0006.62
2022-11-27 20:20:00,,0818.1,5.00,0.00,25.2,24.1,00.0,34.0,27.1,14.2,0000.0,0012.51,0007.00,0006.53
2022-11-27 20:21:00,,0818.0,5.00,0.00,25.2,24.1,00.0,34.0,27.1,15.5,0000.0,0012.58,0007.04,0006.57
2022-11-27 20:22:00,,0818.0,5.00,0.00,25.2,24.1,00.0,34.0,27.1,14.7,0000.0,0011.74,0007.09,0006.64
2022-11-27 20:23:00,,0818.0,5.00,0.00,25.2,24.2,00.0,34.1,27.2,14.7,0000.0,0011.86,0007.23,0006.77
2022-11-27 20:24:00,,0818.0,4.99,0.00,25.3,24.2,00.0,34.1,27.2,15.4,0000.0,0012.26,0007.42,0006.94
2022-11-27 20:25:00,,0818.0,4.99,0.00,25.3,24.2,00.0,34.1,27.2,15.5,0000.0,0011.92,0007.58,0007.10
2022-11-27 20:26:00,,0818.0,5.02,0.00,25.3,24.2,00.0,34.1,27.2,14.3,0000.0,0011.75,0007.61,0007.14
2022-11-27 20:27:00,,0817.9,5.00,0.00,25.3,24.2,00.0,34.1,27.2,14.0,0000.0,0011.70,0007.54,0007.10
2022-11-27 20:28:00,,0818.0,4.99,0.00,25.3,24.2,00.0,34.1,27.2,14.5,0000.0,0011.82,0007.51,0007.06
2022-11-27 20:29:00,,0818.0,4.99,0.00,25.3,24.2,00.0,34.1,27.2,14.5,0000.0,0011.81,0007.48,0007.02
2022-11-27 20:30:00,,0818.0,4.99,0.00,25.3,24.3,00.0,34.1,27.3,14.5,0000.0,0011.96,0007.57,0007.10
2022-11-27 20:31:00,,0818.0,5.01,0.00,25.4,24.3,00.0,34.2,27.3,14.4,0000.0,0012.12,0007.66,0007.20
2022-11-27 20:32:00,,0818.0,5.00,0.00,25.4,24.3,00.0,34.2,27.3,14.1,0000.0,0011.62,0007.59,0007.14
2022-11-27 20:33:00,,0818.0,4.99,0.00,25.4,24.3,00.0,34.2,27.3,14.2,-000.6,0011.45,0007.54,0007.09
2022-11-27 20:34:00,,0818.0,4.99,0.00,25.4,24.3,00.0,34.2,27.3,14.2,0000.0,0011.49,0007.52,0007.08
2022-11-27 20:35:00,,0818.1,5.00,0.00,25.4,24.3,00.0,34.2,27.3,14.1,-000.9,0011.32,0007.48,0007.03
2022-11-27 20:36:00,,0818.0,5.00,0.00,25.4,24.4,00.0,34.2,27.3,14.6,-000.4,0011.49,0007.43,0006.98
2022-11-27 20:37:00,,0818.0,5.01,0.00,25.4,24.4,00.0,34.3,27.4,15.0,0000.0,0011.73,0007.52,0007.07
2022-11-27 20:38:00,,0818.0,5.01,0.00,25.5,24.4,00.0,34.3,27.4,15.0,0000.0,0011.87,0007.68,0007.19
2022-11-27 20:39:00,,0817.9,4.99,0.00,25.5,24.4,00.0,34.3,27.4,15.1,0000.0,0011.86,0007.79,0007.31
2022-11-27 20:40:00,,0818.0,4.99,0.00,25.5,24.4,00.0,34.3,27.4,15.4,0000.0,0012.55,0007.91,0007.42
2022-11-27 20:41:00,,0817.9,5.00,0.00,25.5,24.4,00.0,34.3,27.4,15.4,0000.0,0012.85,0008.05,0007.53
2022-11-27 20:42:00,,0818.0,5.00,0.00,25.5,24.4,00.0,34.3,27.4,15.2,0000.0,0012.90,0008.16,0007.62
2022-11-27 20:43:00,,0817.9,5.00,0.00,25.5,24.4,00.0,34.3,27.5,15.1,0000.0,0012.99,0008.27,0007.72
2022-11-27 20:44:00,,0817.9,5.00,0.00,25.5,24.4,00.0,34.3,27.4,15.2,0000.0,0013.08,0008.38,0007.82
2022-11-27 20:45:00,,0817.8,4.99,0.00,25.5,24.4,00.0,34.4,27.4,15.2,0000.0,0013.65,0008.49,0007.92
2022-11-27 20:46:00,,0817.8,5.01,0.00,25.5,24.4,00.0,34.4,27.5,14.9,0000.0,0014.53,0008.58,0008.02
2022-11-27 20:47:00,,0817.8,5.00,0.00,25.5,24.4,00.0,34.4,27.4,15.0,0000.0,0014.59,0008.66,0008.10
2022-11-27 20:48:00,,0817.8,5.00,0.00,25.5,24.4,00.0,34.4,27.4,14.9,0000.0,0014.53,0008.69,0008.12
2022-11-27 20:49:00,,0817.8,5.00,0.00,25.5,24.3,00.0,34.4,27.5,14.9,0000.0,0015.11,0008.69,0008.12
2022-11-27 20:50:00,,0817.8,5.00,0.00,25.6,24.3,00.0,34.4,27.5,14.9,0000.0,0015.18,0008.71,0008.11
2022-11-27 20:51:00,,0817.8,4.99,0.00,25.6,24.3,00.0,34.4,27.5,15.0,0000.0,0014.75,0008.71,0008.10
2022-11-27 20:52:00,,0817.9,5.00,0.00,25.6,24.4,00.0,34.4,27.5,14.8,0000.0,0014.38,0008.64,0008.05
2022-11-27 20:53:00,,0817.8,5.01,0.00,25.6,24.4,00.0,34.4,27.5,14.7,0000.0,0014.39,0008.58,0008.01
2022-11-27 20:54:00,,0817.8,5.00,0.00,25.6,24.4,00.0,34.4,27.5,14.9,0000.0,0014.40,0008.55,0007.97
2022-11-27 20:55:00,,0817.8,4.99,0.00,25.6,24.4,00.0,34.4,27.5,15.0,0000.0,0014.34,0008.52,0007.93
2022-11-27 20:56:00,,0817.7,5.00,0.00,25.6,24.4,00.0,34.4,27.5,14.8,0000.0,0013.85,0008.48,0007.88
2022-11-27 20:57:00,,0817.7,5.01,0.00,25.6,24.4,00.0,34.4,27.5,14.3,0000.3,0013.00,0008.45,0007.84
2022-11-27 20:58:00,,0817.7,4.99,0.00,25.6,24.4,00.0,34.4,27.5,13.4,0001.4,0013.14,0008.34,0007.71
2022-11-27 20:59:00,,0817.7,5.00,0.00,25.6,24.4,00.0,34.4,27.5,13.5,0000.8,0013.45,0008.22,0007.57
